Current weather by "City, St" or "zip code"  
 
Advertise Here

Current Conditions: Moline Quad-City Airport, IL

Fair


22.0 F

Last Updated on Jan 27 2021, 1:52 pm CST
Humidity: 60%
Wind Speed: NW 8.1 mph
Barometer 30.41 in
Dewpoint: 10.0 F
Visibility: 10.00 mi
Precip: --
Heat Index: NA
Wind Chill: 13 F
Current conditions at:

Moline Quad-City Airport, IL (KMLI)

Lat: 41.4482 Lon: 90.52359

Local Radar Image active severe weather and emergency alerts image image weather storm and storm spotter reports image weather observation monitoring service image
Local
Radar
Active
Alerts
Storm Reports Obs
Monitoring

Sign-up For Email & Text Message Weather Alert Notification Services


Advertise Here

Observation History for Moline Quad-City Airport, IL


Time Wind
(mph)
Vis
(mi)
Weather Precip (in) Temperature (F) Relative
Humidity
Wind
Chill
(F)
Heat
Index
(F)
Pressure
Air Dwpt altimeter
(in)
sea level
(mb)
Rmks
1:52 pm CST NW 8.1 10.00 Fair -- 22.0 10.0 60% 13 NA 30.41 1031.0
12:52 pm CST N 4.6 10.00 A Few Clouds -- 21.0 10.0 62% 15 NA 30.40 1030.7
11:52 am CST N 8.1 10.00 Fair -- 20.0 9.0 62% 10 NA 30.40 1030.6
10:52 am CST N 8.1 10.00 Partly Cloudy -- 19.0 9.0 65% 9 NA 30.41 1030.7
9:52 am CST N 5.8 10.00 Overcast -- 18.0 9.0 68% 10 NA 30.39 1030.0
8:52 am CST N 5.8 10.00 Overcast -- 18.0 10.0 71% 10 NA 30.36 1029.2
7:52 am CST NE 5.8 10.00 Mostly Cloudy -- 17.0 10.0 74% 9 NA 30.35 1028.9
6:52 am CST NE 5.8 10.00 Mostly Cloudy -- 16.0 9.0 74% 7 NA 30.32 1027.8
5:52 am CST NE 5.8 10.00 Fair -- 16.0 9.0 74% 7 NA 30.31 1027.2
4:52 am CST NE 3.5 10.00 Fair -- 16.0 10.0 77% NA NA 30.29 1026.7
3:52 am CST NE 3.5 10.00 Fair -- 17.0 10.9 77% NA NA 30.27 1025.9
2:52 am CST N 0.0 10.00 Fair -- 10.0 6.1 84% NA NA 30.28 1026.2
1:52 am CST N 0.0 10.00 Fair -- 7.0 3.0 84% NA NA 30.30 1026.9
12:52 am CST N 0.0 10.00 Fair -- 9.0 3.9 80% NA NA 30.29 1026.8
11:52 pm CST N 0.0 10.00 Fair -- 16.0 9.0 74% NA NA 30.28 1026.3
10:52 pm CST N 4.6 10.00 Fair -- 20.0 12.0 71% 13 NA 30.25 1025.1
9:52 pm CST N 4.6 10.00 Fair -- 20.0 12.9 74% 13 NA 30.22 1024.1
8:52 pm CST N 6.9 10.00 Fair -- 22.0 12.9 68% 14 NA 30.19 1023.3
7:52 pm CST N 3.5 10.00 Fair -- 22.0 14.0 71% NA NA 30.18 1022.8
6:52 pm CST N 6.9 10.00 Fair -- 24.0 16.0 71% 16 NA 30.16 1022.1
5:52 pm CST NW 4.6 10.00 Fair -- 25.0 16.0 69% 19 NA 30.15 1021.8
4:52 pm CST N 5.8 10.00 Fair -- 27.0 17.1 66% 20 NA 30.11 1020.4
3:52 pm CST N 9.2 10.00 Partly Cloudy -- 28.0 18.0 66% 19 NA 30.08 1019.2
2:52 pm CST N 8.1 G 18.4 10.00 Mostly Cloudy -- 28.0 19.0 69% 20 NA 30.06 1018.5

Regional Weather Observation


Moline Quad-City Airport, IL (KMLI)

Fair
22.0 F

Clinton Municipal Airport, IA (KCWI)

Fair
21.0 F

Muscatine, IA (KMUT)

Fair
21.0 F

Iowa City Municipal Airport, IA (KIOW)

Partly Cloudy
25.0 F

Tri-Township Airport, IL (KSFY)

Fair
21.0 F

Cedar Rapids Airport, IA (KCID)

Fair
21.0 F